Weather History for Muskegon, MI

Change the Weather History Date:

Friday, November 2, 2012

  Actual Average Record
Temperature  
Mean Temperature 42 °F 45 °F  
Max Temperature 47 °F 52 °F 76 °F (1961)
Min Temperature 36 °F 38 °F 18 °F (1951)
Degree Days  
Heating Degree Days 23 20  
Month to date heating degree days 46 40  
Since 1 July heating degree days 628 663  
Cooling Degree Days 0 0  
Month to date cooling degree days 0 0  
Year to date cooling degree days 925 566  
Moisture  
Dew Point 30 °F    
Average Humidity 65    
Maximum Humidity 76    
Minimum Humidity 53    
Precipitation  
Precipitation T in 0.12 in 1.38 in (1964)
Month to date precipitation T 0.24  
Year to date precipitation 27.98 27.82  
Snow  
Snow 0.00 in 0.10 in 1.00 in (1911)
Month to date snowfall 0.0 0.1  
Since 1 July snowfall T 0.3  
Since 1 September snowfall T 0.3  
Snow Depth 0.00 in    
Sea Level Pressure  
Sea Level Pressure 30.03 in    
Wind  
Wind Speed 10 mph (NNW)    
Max Wind Speed 22 mph    
Max Gust Speed 30 mph    
Visibility 10 miles    
Events      
T = Trace of Precipitation, MM = Missing Value Source: NWS Daily Summary

Daily Weather History Graph

Daily Weather History Graph

Search for Another Location

Airport:

Trip Planner

Search our weather history database for the weather conditions in past years. The results will help you decide how hot, cold, wet, or windy it might be!

Date:

Astronomy

Nov. 02, 2012 Rise Set
Actual Time 8:21 AM EDT 6:34 PM EDT
Civil Twilight 7:51 AM EDT 7:04 PM EDT
Nautical Twilight 7:18 AM EDT 7:38 PM EDT
Astronomical Twilight 6:45 AM EDT 8:11 PM EDT
Moon 9:18 PM EDT (11/2) 11:45 AM EDT (11/2)
Length of Visible Light 11h 12m
Length of Day
10h 13m
Waning Gibbous, 87% of the Moon is Illuminated
Nov 2
Waning Gibbous
Nov 6
Last Quarter
Nov 13
New
Nov 20
First Quarter
Nov 28
Full

Hourly Weather History & Observations

Time (EDT) Temp. Windchill Dew Point Humidity Pressure Visibility Wind Dir Wind Speed Gust Speed Precip Events Conditions
12:55 AM 42.1 °F 34.5 °F 30.0 °F 62% 29.87 in 10.0 mi NNW 15.0 mph 20.7 mph N/A   Mostly Cloudy
1:55 AM 39.9 °F 32.9 °F 28.0 °F 63% 29.89 in 10.0 mi NNW 11.5 mph - N/A   Clear
2:55 AM 41.0 °F 34.7 °F 27.0 °F 57% 29.90 in 10.0 mi NW 10.4 mph - N/A   Overcast
3:55 AM 39.9 °F 32.5 °F 28.0 °F 63% 29.91 in 10.0 mi NW 12.7 mph - N/A   Clear
4:55 AM 41.0 °F 34.7 °F 28.9 °F 62% 29.92 in 10.0 mi NNW 10.4 mph - N/A   Overcast
5:55 AM 39.9 °F 33.4 °F 28.9 °F 65% 29.93 in 10.0 mi NNW 10.4 mph - 0.00 in   Partly Cloudy
6:55 AM 39.0 °F 30.6 °F 32.0 °F 76% 29.95 in 10.0 mi NNW 15.0 mph 23.0 mph 0.00 in   Mostly Cloudy
7:55 AM 37.0 °F 32.4 °F 30.9 °F 79% 29.97 in 10.0 mi North 5.8 mph 16.1 mph N/A   Partly Cloudy
8:55 AM 37.9 °F 32.1 °F 30.0 °F 73% 29.99 in 10.0 mi North 8.1 mph - N/A   Clear
9:55 AM 39.9 °F 33.4 °F 30.9 °F 70% 30.02 in 10.0 mi NNW 10.4 mph - N/A   Partly Cloudy
10:55 AM 41.0 °F 34.3 °F 30.0 °F 65% 30.04 in 10.0 mi NNW 11.5 mph - N/A   Mostly Cloudy
11:33 AM 44.6 °F 38.1 °F 30.2 °F 57% 30.03 in 10.0 mi NNW 13.8 mph - N/A   Mostly Cloudy
11:55 AM 44.1 °F 38.6 °F 28.9 °F 55% 30.04 in 10.0 mi North 10.4 mph 20.7 mph N/A   Overcast
12:55 PM 43.0 °F 37.7 °F 30.0 °F 60% 30.06 in 10.0 mi NNW 9.2 mph - N/A   Overcast
1:55 PM 43.0 °F 35.4 °F 28.9 °F 58% 30.06 in 10.0 mi NNW 16.1 mph - N/A   Overcast
2:55 PM 43.0 °F 36.4 °F 30.0 °F 60% 30.06 in 10.0 mi NNW 12.7 mph - N/A   Mostly Cloudy
3:55 PM 44.1 °F 38.1 °F 30.0 °F 58% 30.06 in 10.0 mi NNW 11.5 mph - N/A   Overcast
4:55 PM 44.1 °F 38.1 °F 30.9 °F 60% 30.08 in 10.0 mi NW 11.5 mph - N/A   Mostly Cloudy
5:55 PM 41.0 °F 34.3 °F 30.9 °F 67% 30.09 in 10.0 mi NNW 11.5 mph - N/A   Mostly Cloudy
6:55 PM 41.0 °F 34.7 °F 32.0 °F 70% 30.12 in 10.0 mi NNW 10.4 mph - N/A   Mostly Cloudy
7:13 PM 39.2 °F 33.6 °F 30.2 °F 70% 30.09 in 10.0 mi NNW 8.1 mph - N/A   Mostly Cloudy
7:55 PM 37.9 °F 31.5 °F 30.0 °F 73% 30.13 in 10.0 mi NNW 9.2 mph - N/A   Partly Cloudy
8:55 PM 37.0 °F 31.6 °F 30.0 °F 76% 30.14 in 10.0 mi NNW 6.9 mph - N/A   Clear
9:55 PM 37.0 °F 31.0 °F 30.0 °F 76% 30.14 in 10.0 mi North 8.1 mph - N/A   Clear
10:55 PM 36.0 °F 29.6 °F 28.9 °F 76% 30.15 in 10.0 mi North 8.1 mph - N/A   Scattered Clouds
11:05 PM 37.4 °F 31.4 °F 28.4 °F 70% 30.13 in 10.0 mi North 8.1 mph - N/A   Mostly Cloudy
11:55 PM 37.9 °F 33.5 °F 30.0 °F 73% 30.16 in 10.0 mi North 5.8 mph - N/A   Overcast